Location: Godiavel Galaoual
(15.2485°N, 12.6604°W)
Time: 05:50:50
(UTC+00:00)

Meteor 1-18 Rocket - Pass Details

Date: 27 February 2020
Orbit: 836 x 909 km, 81.2° (Epoch: 07 April)

Event Time Altitude Azimuth Distance (km) Brightness Sun altitude
Rises 20:22:19 0° 352° (N) 3,491 7.5 -21.1°
Reaches altitude 10° 20:24:47 10° 352° (N) 2,541 6.7 -21.7°
Maximum altitude 20:30:34 82° 265° (W) 882 4.3 -23.1°
Drops below altitude 10° 20:36:14 10° 178° (S) 2,488 6.6 -24.5°
Sets 20:38:38 0° 177° (S) 3,413 7.4 -25.0°
